Probability
0 0 0 0 0 0 0 0 0 0 0 0 1 4 8 13 19 23 25 25 23 24 26 26 22 21 23 24 22 18 15 16 16 16 16 15 14 13 15 16 16 16 17 17
0 0 0 0 0 0 0 0 0 0 0 0 2 5 8 12 16 20 21 21 20 20 22 21 19 20 21 20 19 16 13 13 14 14 14 13 12 12 13 15 15 17 18 18
0 0 0 0 0 0 0 0 0 0 0 0 1 4 7 9 11 14 16 15 15 15 16 16 15 15 16 15 14 13 11 10 10 11 11 11 10 10 11 12 14 15 16 17
0 0 0 0 0 0 0 0 0 0 0 0 0 1 4 6 8 10 11 11 11 11 11 11 11 10 11 11 11 10 9 8 7 8 9 9 9 10 10 10 11 13 12 12
0 0 0 0 0 0 0 0 0 0 0 0 0 1 3 5 7 9 10 9 8 8 7 6 6 7 8 9 9 8 7 6 5 5 7 7 7 8 8 9 10 10 9 7
0 0 0 0 0 0 0 0 0 0 0 0 0 1 2 5 6 8 10 8 6 5 5 3 4 4 5 7 8 8 7 6 3 3 5 6 5 5 5 6 8 8 6 5
0 0 0 0 0 0 0 0 0 0 0 0 0 1 2 4 5 6 7 6 4 4 3 2 2 3 4 5 7 7 7 4 2 2 3 4 3 2 2 3 5 6 4 3
0 0 0 0 0 0 0 0 0 0 0 0 1 2 3 3 4 4 4 3 3 3 2 1 1 2 4 5 6 6 5 3 1 0 1 1 1 1 2 2 3 4 2 1
0 0 0 0 0 0 0 0 0 0 0 1 2 3 3 3 2 1 1 1 2 2 2 1 1 2 4 6 6 6 4 2 0 0 0 0 0 1 1 2 3 3 1 0
0 0 0 0 0 0 0 0 0 0 0 1 2 3 3 2 1 0 0 0 1 1 1 0 1 2 4 5 6 5 4 2 1 0 0 0 0 0 1 1 3 2 1 0
0 0 0 0 0 0 0 0 0 0 0 0 1 2 2 1 0 0 0 0 0 0 0 0 1 3 4 4 4 4 3 2 1 0 0 0 0 0 1 2 3 2 1 0
0 0 0 0 0 0 0 0 0 0 0 0 1 2 1 0 0 0 0 0 0 0 0 0 1 3 4 3 3 3 3 2 1 0 0 0 0 0 1 1 2 1 1 0
0 0 0 0 0 0 0 0 0 0 0 0 1 1 0 0 0 0 0 0 0 0 0 0 1 2 3 3 3 2 2 1 0 0 0 0 0 0 0 0 1 1 1 0
0 0 0 0 0 0 0 0 0 0 0 0 0 0 0 0 0 0 0 0 0 0 0 0 0 1 2 2 1 1 1 0 0 0 0 0 0 0 0 0 0 1 2 1
0 0 0 0 0 0 0 0 0 0 0 0 0 0 0 0 0 0 0 0 0 0 0 0 0 0 1 1 0 0 0 0 0 0 0 0 0 0 0 0 0 1 2 2
0 0 0 0 0 0 0 0 0 0 0 0 0 0 0 0 0 0 0 0 0 0 0 0 0 0 0 0 0 0 0 0 0 0 0 0 0 0 0 0 0 0 1 1
0 0 0 0 0 0 0 0 0 0 0 0 0 0 0 0 0 0 0 0 0 0 0 0 0 0 0 0 0 0 0 0 0 0 0 0 0 0 0 0 0 0 0 0
0 0 0 0 0 0 0 0 0 0 0 0 0 0 0 0 0 0 0 0 0 0 0 0 0 0 0 0 0 0 0 0 0 0 0 0 0 0 0 0 0 0 0 0
0 0 0 0 0 0 0 0 0 0 0 0 0 0 0 0 0 0 0 0 0 0 0 0 0 0 0 0 0 0 0 0 0 0 0 0 0 0 0 0 0 0 0 0
0 0 0 0 0 0 0 0 0 0 0 0 0 0 0 0 0 0 0 0 0 0 0 0 0 0 0 0 0 0 0 0 0 0 0 0 1 1 0 0 0 0 0 0
0 0 0 0 0 0 0 0 0 0 0 0 0 0 0 0 0 0 0 0 0 0 0 0 0 0 0 0 0 0 0 0 0 0 0 1 2 2 1 0 0 0 0 0
0 0 0 0 0 0 0 0 0 0 0 0 0 0 0 0 0 0 0 0 0 0 0 0 0 0 0 0 0 0 0 0 0 0 0 1 2 2 2 1 1 1 0 0
0 0 0 0 0 0 0 0 0 0 0 0 0 0 0 0 0 0 0 0 0 0 0 0 0 0 0 0 0 0 0 0 0 0 0 1 1 1 1 2 2 2 1 0
0 0 0 0 0 0 0 0 0 0 0 0 0 0 0 0 0 0 0 0 0 0 0 0 0 0 0 0 0 0 0 0 0 0 0 0 0 0 0 1 2 2 1 0
0 0 0 0 0 0 0 0 0 0 0 0 0 0 0 0 0 0 0 0 0 0 0 0 0 0 0 0 0 0 0 0 0 0 0 0 0 0 0 0 1 1 0 0
0 0 0 0 0 0 0 0 0 0 0 0 0 0 0 0 0 0 0 0 0 0 0 0 0 0 0 0 0 0 0 0 0 0 0 0 0 0 0 0 0 0 0 0
Wind_Speed
2 4 1 5 5 5 1 2 3 3 3 4 4 4 3 3 6 6 5 4 4 3 3 5 5 4 5 5 5 4 4 2 2 1 1 1 0 0 0 1 1 2 2 2
5 3 7 4 1 1 3 4 4 5 4 3 5 5 4 4 4 4 4 4 4 5 6 6 5 5 4 3 3 3 3 2 2 1 0 1 0 0 1 1 1 1 2 2
2 5 3 2 3 4 3 2 3 5 4 4 4 5 5 5 6 6 6 5 5 5 4 4 4 4 4 3 2 2 1 2 2 2 1 1 1 1 1 1 1 2 2 2
2 4 3 3 3 2 3 4 3 3 2 2 2 1 3 3 6 6 5 4 3 4 4 3 3 3 3 2 2 1 2 2 2 2 1 1 1 0 1 1 1 1 1 1
4 3 4 4 3 1 2 4 2 2 1 2 4 3 3 2 4 4 4 4 4 4 4 3 2 2 2 2 2 2 3 3 3 2 1 0 0 1 1 1 1 1 2 2
3 3 3 1 3 2 2 5 6 5 5 3 3 2 2 2 1 1 3 4 4 4 4 3 2 2 2 2 2 2 3 3 3 3 2 0 1 0 0 1 1 1 1 2
8 7 6 4 7 8 8 7 6 7 5 3 2 3 2 3 1 1 1 2 2 3 3 2 3 2 2 1 1 2 2 2 3 3 2 1 1 1 1 2 2 1 1 2
4 7 6 7 3 2 3 5 4 2 3 4 3 1 2 3 3 3 3 3 3 2 2 2 1 1 0 1 1 1 1 2 2 2 2 2 1 0 1 2 1 1 2 2
2 5 5 5 5 2 4 3 3 5 1 1 2 1 2 5 7 7 6 5 5 3 2 2 2 1 1 1 1 1 0 1 2 2 2 2 2 1 1 2 1 1 1 2
2 3 6 6 6 6 3 1 5 4 2 2 2 1 2 3 4 5 5 4 4 4 3 3 3 2 1 1 1 0 0 1 2 1 1 1 1 1 1 1 1 1 1 1
4 2 6 6 4 3 5 5 4 3 3 2 2 4 2 3 2 2 2 3 3 3 3 3 3 2 1 1 1 1 1 2 2 2 1 1 2 2 2 1 2 1 1 1
3 4 2 5 4 1 2 2 3 2 2 1 2 6 3 1 1 1 2 3 3 2 2 3 3 3 3 2 1 1 1 2 2 2 1 1 1 1 1 2 2 1 1 1
3 5 4 8 8 8 5 4 2 3 2 1 1 6 4 2 3 2 2 3 3 3 4 3 3 3 4 3 3 1 1 2 3 2 1 1 1 1 2 2 2 2 1 2
4 4 4 4 6 5 5 7 5 2 0 2 3 5 5 5 3 3 3 3 2 3 4 4 4 3 4 3 3 3 3 3 3 2 2 2 2 2 2 2 2 2 2 2
5 2 2 4 4 3 4 6 5 2 1 2 3 3 4 4 2 2 2 3 3 4 4 4 4 4 4 4 3 3 3 3 3 3 2 2 2 2 2 2 2 2 2 2
4 1 2 3 3 4 4 7 5 3 2 1 1 3 3 3 2 3 3 3 4 4 4 4 4 4 4 4 4 4 4 3 3 3 3 3 2 2 2 2 2 2 2 2
1 2 2 4 5 4 4 5 3 2 2 1 1 3 3 4 4 3 3 3 4 5 5 6 5 5 5 5 4 4 4 3 3 3 4 3 2 2 3 3 2 2 2 2
4 2 2 1 4 1 3 2 3 3 3 3 2 2 2 3 4 3 2 2 4 5 5 6 5 5 5 4 4 4 4 3 3 4 4 3 3 3 3 2 2 2 2 2
6 5 2 1 1 3 3 4 3 0 1 2 3 4 4 3 4 4 3 3 4 6 6 5 5 5 4 4 4 3 3 3 3 3 4 3 3 3 3 3 2 1 1 2
3 4 4 1 1 3 4 5 4 2 1 3 3 3 4 4 4 5 6 6 6 6 5 4 4 3 4 5 3 2 4 3 4 4 4 3 3 2 3 3 2 1 1 1
3 3 1 1 2 4 3 4 4 2 5 5 3 3 3 3 5 7 7 6 5 5 4 4 3 3 4 5 2 3 4 4 5 4 4 3 3 2 3 2 1 1 1 1
2 1 1 1 1 5 4 3 0 5 5 4 4 3 3 5 6 6 5 5 5 5 4 3 3 4 5 4 2 3 4 5 4 3 3 3 3 2 2 1 1 0 0 1
1 4 4 5 6 6 2 2 3 3 3 4 3 5 4 4 5 5 5 5 5 4 3 3 3 4 5 4 2 3 4 3 3 3 3 3 2 2 1 0 0 0 0 1
3 1 1 2 4 3 3 2 2 2 3 4 5 5 4 5 5 6 5 5 4 4 4 3 2 3 4 4 3 4 4 3 2 2 3 2 1 2 2 1 0 1 1 1
4 2 2 3 5 4 3 3 3 3 3 4 4 4 3 4 5 5 5 4 4 4 4 3 2 3 4 4 4 4 3 2 2 2 2 2 1 1 1 1 1 1 2 3
4 4 4 6 7 4 6 5 3 3 4 4 4 4 4 3 4 4 4 3 3 4 4 3 3 3 4 4 4 4 3 1 1 2 2 2 1 1 1 1 2 3 2 3
Wind_Direction
350 65 276 250 211 198 216 14 340 294 267 64 74 61 42 66 84 90 89 88 88 77 60 58 58 62 74 74 75 71 75 50 68 75 84 80 191 208 171 214 197 208 221 215
19 313 254 243 269 55 47 30 342 313 324 58 79 55 44 55 84 112 105 93 85 64 53 55 52 46 48 57 60 60 60 42 49 84 185 163 161 242 194 245 265 232 223 214
185 256 282 18 20 35 14 7 311 303 336 38 89 32 25 20 54 57 61 76 78 76 71 55 52 52 54 56 57 60 61 43 17 12 50 61 42 19 15 335 307 286 251 227
303 299 1 33 21 61 331 300 307 313 18 313 53 84 331 9 40 36 31 39 59 70 74 67 53 40 51 63 64 43 33 26 11 6 50 118 133 222 254 237 238 257 279 282
313 334 26 32 347 25 264 293 313 288 109 40 17 93 307 6 24 360 12 29 47 54 63 57 57 60 54 57 59 53 40 16 354 348 316 155 213 231 258 278 276 279 267 258
307 348 48 26 341 20 26 10 5 28 61 41 322 100 294 311 275 337 9 27 41 44 45 44 37 56 51 45 47 46 42 15 359 4 357 164 227 278 349 297 277 280 283 279
341 347 358 16 13 3 35 54 21 5 12 278 312 87 260 311 352 97 46 21 22 41 39 23 27 23 26 52 53 65 60 6 3 19 4 309 223 202 215 255 249 241 275 269
8 330 349 5 17 330 353 99 133 211 250 280 346 120 249 8 32 39 37 31 21 21 23 347 342 22 352 158 107 91 65 349 351 13 356 339 325 326 288 272 247 224 241 251
27 302 326 359 9 61 10 3 166 144 312 327 320 3 343 9 18 21 18 20 8 348 357 352 342 352 332 209 199 183 192 331 331 349 356 349 345 346 308 305 281 241 255 260
75 311 318 337 14 25 85 72 56 68 50 323 316 302 287 322 339 352 357 1 345 346 3 356 346 345 326 241 240 225 244 271 287 315 321 337 319 310 278 280 287 274 279 297
59 64 328 358 12 354 6 23 56 75 135 150 277 276 241 215 255 305 326 344 337 347 348 351 337 331 330 343 334 331 326 317 316 309 294 305 295 303 302 280 266 263 280 285
31 94 329 296 285 335 101 93 104 102 296 196 199 265 301 180 269 321 348 345 346 352 343 343 345 352 350 335 331 343 321 307 301 297 293 264 292 317 313 291 278 266 268 280
57 82 17 343 345 0 16 12 37 123 127 188 203 269 327 10 3 13 4 347 347 349 348 347 347 358 342 338 331 321 324 314 307 314 328 337 326 324 310 291 289 280 270 288
90 98 147 208 254 296 326 337 343 49 140 246 236 269 318 335 340 335 338 335 335 339 348 345 338 335 328 330 333 326 320 312 309 320 331 320 295 284 283 283 288 284 272 274
79 99 243 253 276 315 331 333 333 335 253 214 269 274 281 292 278 282 301 320 338 340 346 343 332 324 316 321 323 325 318 317 310 315 312 295 291 300 307 297 291 290 284 292
57 92 347 318 311 338 357 358 353 351 360 34 331 294 300 315 346 341 329 338 338 335 333 327 324 324 317 308 308 313 310 315 314 308 295 289 296 311 311 302 303 312 307 321
23 102 55 297 308 350 360 341 353 11 356 67 290 278 330 349 338 308 311 327 322 318 314 314 310 305 298 289 287 288 286 291 306 295 292 286 290 299 299 300 317 319 320 337
165 134 141 281 3 332 249 334 35 74 39 31 45 347 346 318 308 290 283 306 308 308 303 300 294 292 287 285 288 290 291 289 296 298 294 285 281 286 294 296 296 307 315 307
165 148 138 128 267 271 306 336 337 106 333 14 34 355 341 335 342 317 294 295 289 285 281 281 274 274 285 288 287 302 308 298 296 297 290 282 272 277 287 291 287 284 296 304
81 101 119 127 211 247 266 311 326 74 335 336 3 335 325 348 340 296 301 307 301 297 294 296 297 298 306 294 288 301 301 298 288 283 276 273 271 271 276 271 266 262 256 272
24 31 89 192 235 258 280 329 17 50 266 284 292 288 301 290 259 272 288 298 297 297 302 308 317 313 302 296 302 298 294 284 276 280 285 288 282 268 266 257 245 266 293 314
159 144 248 145 255 267 308 11 77 238 249 260 274 275 279 284 287 292 293 298 303 306 313 318 320 306 303 303 305 298 288 280 288 300 305 299 293 286 275 245 248 269 300 322
177 182 187 189 219 244 271 234 244 222 255 264 263 278 280 286 287 290 290 291 296 298 303 305 304 304 306 300 285 284 287 294 307 322 321 311 308 306 301 213 213 267 301 263
309 18 88 294 275 273 282 278 285 258 259 266 267 276 281 282 283 287 289 288 294 295 292 297 313 315 307 302 293 275 285 296 312 313 311 313 315 322 344 0 275 204 233 239
259 311 308 274 281 308 302 282 277 284 293 294 289 287 281 284 288 285 288 288 292 299 295 291 289 288 287 290 287 280 285 300 312 295 290 302 303 287 323 321 275 239 236 215
236 216 215 245 249 236 260 265 276 293 294 293 295 305 309 299 288 291 288 283 289 290 286 289 294 298 293 292 284 278 279 277 276 295 297 295 296 298 282 290 326 317 277 268